Location: Unspecified
(41.1637°N, 24.2901°E)
Time: 18:23:44
(UTC+02:00)

X-37B - Visible Passes

Search period start: 23 June 2021 00:00
Search period end: 03 July 2021 00:00
Orbit: 386 x 389 km, 45.0° (Epoch: 10 June)

Date Brightness Start Highest point End Pass type
(mag) Time Alt. Az. Time Alt. Az. Time Alt. Az.
23 Jun 0.6 02:49:38 55° S 02:49:38 55° S 02:52:30 10° SE visible
23 Jun 1.3 20:57:50 10° SSW 21:00:42 31° SSE 21:03:34 10° E visible
23 Jun 1.1 22:34:06 10° W 22:37:14 58° NNW 22:37:47 48° NNE visible
24 Jun 0.5 21:35:39 10° WSW 21:38:50 86° NNW 21:42:01 10° ENE visible
24 Jun 2.2 23:12:40 10° WNW 23:15:11 36° NNW 23:15:11 36° NNW visible
25 Jun 0.6 20:37:22 10° SW 20:40:30 57° SSE 20:43:37 10° ENE visible
25 Jun 1.7 22:14:09 10° W 22:17:13 44° N 22:19:36 15° ENE visible
25 Jun 3.3 23:51:07 10° WNW 23:51:53 16° WNW 23:51:53 16° WNW visible
26 Jun 1.2 21:15:38 10° W 21:18:46 58° NNW 21:21:55 10° ENE visible
26 Jun 1.9 22:52:41 10° WNW 22:55:43 39° N 22:56:01 38° NNE visible
27 Jun 2.0 21:54:12 10° WNW 21:57:14 39° N 22:00:02 11° ENE visible
27 Jun 2.9 23:31:02 10° WNW 23:32:17 21° WNW 23:32:17 21° WNW visible
28 Jun 1.8 20:55:41 10° W 20:58:45 44° N 21:01:49 10° ENE visible
28 Jun 1.6 22:32:39 10° WNW 22:35:43 44° N 22:36:14 40° NE visible
29 Jun 1.9 21:34:14 10° WNW 21:37:15 39° N 21:40:08 11° ENE visible
29 Jun 2.6 23:10:55 10° WNW 23:12:23 25° WNW 23:12:23 25° WNW visible
30 Jun 2.0 20:35:44 10° WNW 20:38:46 39° N 20:41:47 10° ENE visible
30 Jun 1.0 22:12:33 10° WNW 22:15:43 59° NNE 22:16:18 48° ENE visible
01 Jul 1.6 21:14:11 10° WNW 21:17:15 45° N 21:20:12 11° E visible
01 Jul 2.4 22:50:51 10° WNW 22:52:28 26° W 22:52:28 26° W visible
02 Jul 0.5 21:52:27 10° WNW 21:55:38 88° NNE 21:56:22 50° ESE visible
